Location: Kellogg
(38.0159°N, 90.0546°W)
Time: 03:12:30
(UTC+00:00)

SR - Pass Details

Date: 12 September 2024
Orbit: 577 x 855 km, 66.7° (Epoch: 10 October)

Event Time Altitude Azimuth Distance (km) Brightness Sun altitude
Rises 06:28:46 0° 309° (NW) 3,007 - -47.4°
Reaches altitude 10° 06:32:06 10° 283° (WNW) 2,150 - -47.2°
Maximum altitude 06:34:31 14° 254° (WSW) 1,943 - -47.1°
Drops below altitude 10° 06:37:02 10° 224° (SW) 2,236 - -47.0°
Sets 06:40:38 0° 199° (SSW) 3,221 - -46.8°
